GW1230 Weather Reports


time (UTC)temp
F
wind
direction
speed
knots
gust
knots
rain 1hr
in
rain 24hr
in
rain mn
in
humidity
%
barometer
mb
20260901142857 57 262 0.9 0.9 0.00 0.00 0.00 95 1010.1
20260901142356 57 228 1.7 1.7 0.00 0.00 0.00 95 1010.1
20260901141851 57 261 2.6 2.6 0.00 0.00 0.00 95 1010.1
20260901141346 57 264 0.0 0.0 0.00 0.00 0.00 95 1009.9
20260901140845 57 249 6.1 7.8 0.00 0.00 0.00 95 1009.8
20260901140343 57 251 2.6 2.6 0.00 0.00 0.00 94 1009.8
20260901135838 57 270 0.9 2.6 0.00 0.00 0.00 94 1009.6
20260901135334 57 236 1.7 1.7 0.00 0.00 0.00 94 1010.0
20260901134829 57 247 1.7 2.6 0.00 0.00 0.00 94 1010.0
20260901134325 57 268 2.6 4.3 0.00 0.00 0.00 93 1009.9
20260901133819 57 281 8.7 11.3 0.00 0.00 0.00 92 1009.8
20260901133318 58 229 6.1 7.8 0.00 0.00 0.00 90 1009.8
20260901132817 58 267 2.6 4.3 0.00 0.00 0.00 88 1009.8
20260901132312 58 254 0.9 1.7 0.00 0.00 0.00 86 1009.6
20260901131806 58 268 0.9 0.9 0.00 0.00 0.00 86 1009.4
20260901131306 58 243 2.6 2.6 0.00 0.00 0.00 86 1009.4
20260901130800 59 280 0.0 0.0 0.00 0.00 0.00 86 1009.5
20260901130255 59 257 0.0 0.0 0.00 0.00 0.00 87 1009.4
20260901125752 58 268 0.0 0.0 0.00 0.00 0.00 88 1009.4
20260901125247 58 279 0.0 0.0 0.00 0.00 0.00 89 1009.4
20260901124742 58 308 0.0 0.0 0.00 0.00 0.00 89 1009.1
20260901124237 58 280 0.0 0.0 0.00 0.00 0.00 89 1009.2
20260901123736 58 291 0.0 0.0 0.00 0.00 0.00 90 1009.4
20260901123231 58 281 0.0 0.0 0.00 0.00 0.00 90 1009.3
20260901122730 57 279 0.0 0.0 0.00 0.00 0.00 90 1009.2
20260901122225 57 280 0.0 0.0 0.00 0.00 0.00 90 1009.3
20260901121719 57 279 0.0 0.0 0.00 0.00 0.00 90 1009.2
20260901121214 57 279 0.0 0.0 0.00 0.00 0.00 90 1009.0
20260901120714 57 289 0.0 0.0 0.00 0.00 0.00 90 1009.0
20260901120209 57 277 0.0 0.0 0.00 0.00 0.00 90 1009.0
20260901115704 57 281 0.0 0.0 0.00 0.00 0.00 90 1009.1
20260901115200 57 284 0.0 0.0 0.00 0.00 0.00 90 1009.0
20260901114657 56 280 0.0 0.0 0.00 0.00 0.00 91 1009.1
20260901114156 56 291 0.0 0.0 0.00 0.00 0.00 91 1008.9
20260901113655 56 285 0.0 0.0 0.00 0.00 0.00 91 1008.8
20260901113151 56 284 0.0 0.0 0.00 0.00 0.00 91 1009.0
20260901112644 56 292 0.0 0.0 0.00 0.00 0.00 90 1009.1
20260901112144 56 292 0.0 0.0 0.00 0.00 0.00 90 1009.0
20260901111644 56 292 0.0 0.0 0.00 0.00 0.00 90 1009.1
20260901111138 57 293 0.0 0.0 0.00 0.00 0.00 90 1009.0
20260901110633 57 279 0.0 0.0 0.00 0.00 0.00 89 1008.9
20260901110128 57 286 0.0 0.0 0.00 0.00 0.00 90 1009.0
20260901105625 57 290 0.0 0.0 0.00 0.00 0.00 90 1008.9
20260901105124 57 293 0.0 0.0 0.00 0.00 0.00 89 1008.8
20260901104620 57 290 0.0 0.0 0.00 0.00 0.00 89 1009.0
20260901104115 57 273 0.0 0.0 0.00 0.00 0.00 89 1009.0
20260901103609 57 286 0.0 0.0 0.00 0.00 0.00 89 1008.9
20260901103105 57 282 0.0 0.0 0.00 0.00 0.00 88 1009.0
20260901102604 57 283 0.0 0.0 0.00 0.00 0.00 88 1009.2
20260901102059 57 285 0.0 0.0 0.00 0.00 0.00 88 1009.1
20260901101555 57 279 0.0 0.0 0.00 0.00 0.00 87 1009.2
20260901101054 57 274 0.0 0.0 0.00 0.00 0.00 87 1008.9
20260901100548 57 283 0.0 0.0 0.00 0.00 0.00 88 1008.9
20260901100048 57 290 0.0 0.0 0.00 0.00 0.00 87 1008.7
20260901095546 57 293 0.0 0.0 0.00 0.00 0.00 87 1008.7
20260901095044 57 283 0.0 0.0 0.00 0.00 0.00 87 1008.6
20260901094540 58 279 0.0 0.0 0.00 0.00 0.00 86 1008.7
20260901094039 58 285 0.0 0.0 0.00 0.00 0.00 86 1008.5
20260901093534 58 288 0.0 0.0 0.00 0.00 0.00 86 1008.9
20260901093028 58 289 0.0 0.0 0.00 0.00 0.00 86 1008.6
20260901092525 58 289 0.0 0.0 0.00 0.00 0.00 86 1008.8
20260901092020 58 296 0.0 0.0 0.00 0.00 0.00 86 1008.5
20260901091515 58 294 0.0 0.0 0.00 0.00 0.00 86 1008.7
20260901091010 58 285 0.0 0.9 0.00 0.00 0.00 86 1008.8
20260901090509 58 285 0.0 0.9 0.00 0.00 0.00 86 1008.6
20260901090006 59 268 1.7 1.7 0.00 0.00 0.00 86 1008.7
20260901085501 59 285 0.0 0.0 0.00 0.00 0.00 85 1008.8
20260901084957 59 292 0.9 1.7 0.00 0.00 0.00 84 1008.7
20260901084452 60 292 1.7 1.7 0.00 0.00 0.00 83 1008.8
20260901083948 60 274 0.0 0.0 0.00 0.00 0.00 81 1008.6
20260901083443 60 294 0.0 0.0 0.00 0.00 0.00 77 1008.7
20260901082941 60 294 0.0 0.0 0.00 0.00 0.00 77 1008.6
20260901082436 60 294 0.0 0.0 0.00 0.00 0.00 77 1008.6
20260901081931 60 306 0.0 0.0 0.00 0.00 0.00 77 1008.7
20260901081426 60 308 0.0 0.9 0.00 0.00 0.00 77 1008.5
20260901080921 61 299 0.0 0.0 0.00 0.00 0.00 77 1008.6
20260901080415 61 330 0.0 0.0 0.00 0.00 0.00 77 1008.5
20260901075910 60 317 0.0 0.0 0.00 0.00 0.00 77 1008.5
20260901075405 61 308 0.0 0.0 0.00 0.00 0.00 77 1008.7
20260901074904 61 297 0.0 0.0 0.00 0.00 0.00 76 1008.3
20260901074359 61 295 0.0 0.0 0.00 0.00 0.00 75 1008.7
20260901073855 61 304 0.0 0.9 0.00 0.00 0.00 76 1008.4
20260901073350 61 313 0.0 0.0 0.00 0.00 0.00 75 1008.6
20260901072846 62 316 0.0 0.0 0.00 0.00 0.00 75 1008.6
20260901072346 62 317 0.0 0.0 0.00 0.00 0.00 75 1008.4
20260901071841 61 320 0.0 0.9 0.00 0.00 0.00 75 1008.4
20260901071339 61 294 0.0 0.0 0.00 0.00 0.00 76 1008.5
20260901070838 62 293 0.0 0.0 0.00 0.00 0.00 76 1008.7
20260901070335 61 297 0.0 0.0 0.00 0.00 0.00 77 1008.6
20260901065833 62 296 0.0 0.0 0.00 0.00 0.00 76 1008.5
20260901065329 62 305 0.0 0.0 0.00 0.00 0.00 76 1008.2
20260901064824 62 293 0.0 0.0 0.00 0.00 0.00 76 1008.5
20260901064321 63 295 0.0 0.0 0.00 0.00 0.00 75 1008.7
20260901063818 62 300 0.0 0.0 0.00 0.00 0.00 74 1008.5
20260901063314 63 293 0.0 0.0 0.00 0.00 0.00 74 1008.4
20260901062810 62 292 0.0 0.0 0.00 0.00 0.00 75 1008.5
20260901062309 63 309 0.0 0.0 0.00 0.00 0.00 75 1008.5
20260901061801 63 307 0.0 0.0 0.00 0.00 0.00 75 1008.7
20260901061301 63 308 0.0 0.0 0.00 0.00 0.00 74 1008.6
20260901060756 63 308 0.0 0.0 0.00 0.00 0.00 74 1008.5
20260901060252 63 308 0.0 0.0 0.00 0.00 0.00 74 1008.6
20260901055746 63 308 0.0 0.0 0.00 0.00 0.00 74 1008.4
20260901055243 64 322 0.0 0.0 0.00 0.00 0.00 74 1008.6
20260901054739 64 319 0.0 0.0 0.00 0.00 0.00 74 1008.5
20260901054236 64 298 0.0 0.0 0.00 0.00 0.00 74 1008.6
20260901053731 64 289 0.0 0.0 0.00 0.00 0.00 74 1008.7
20260901053226 64 312 0.0 0.0 0.00 0.00 0.00 73 1008.9
20260901052722 64 301 0.0 0.0 0.00 0.00 0.00 73 1008.9
20260901052218 64 343 0.0 0.0 0.00 0.00 0.00 74 1008.7
20260901051716 64 324 0.0 0.0 0.00 0.00 0.00 74 1008.6
20260901051211 64 296 0.0 0.0 0.00 0.00 0.00 73 1008.7
20260901050706 65 283 0.0 0.0 0.00 0.00 0.00 72 1008.7
20260901050201 65 270 0.0 0.0 0.00 0.00 0.00 73 1008.7
20260901045656 64 284 0.0 0.0 0.00 0.00 0.00 73 1008.9
20260901045151 64 302 0.0 0.0 0.00 0.00 0.00 73 1008.9
20260901044646 64 304 0.0 0.0 0.00 0.00 0.00 72 1008.7
20260901044143 64 300 0.0 0.0 0.00 0.00 0.00 72 1008.5
20260901043638 65 295 0.0 0.0 0.00 0.00 0.00 71 1008.7
20260901043134 65 293 0.0 0.0 0.00 0.00 0.00 71 1008.8
20260901042632 65 286 0.0 0.0 0.00 0.00 0.00 71 1008.6
20260901042128 65 289 0.0 0.0 0.00 0.00 0.00 71 1008.8
20260901041624 65 312 0.0 0.0 0.00 0.00 0.00 70 1008.6
20260901041119 65 321 0.0 0.0 0.00 0.00 0.00 70 1008.6
20260901040618 66 317 0.0 0.0 0.00 0.00 0.00 70 1008.5
20260901040112 66 323 0.9 1.7 0.00 0.00 0.00 69 1008.5
20260901035610 66 320 0.0 0.0 0.00 0.00 0.00 69 1008.5
20260901035109 66 308 0.0 0.0 0.00 0.00 0.00 69 1008.3
20260901034609 66 319 0.0 0.9 0.00 0.00 0.00 68 1008.5
20260901034103 66 15 2.6 4.3 0.00 0.00 0.00 68 1008.2
20260901033602 66 312 0.0 0.0 0.00 0.00 0.00 69 1008.5
20260901033057 66 323 2.6 5.2 0.00 0.00 0.00 69 1008.3
20260901032556 66 342 4.3 6.1 0.00 0.00 0.00 69 1008.3
20260901032051 66 346 3.5 4.3 0.00 0.00 0.00 69 1008.2
20260901031546 66 313 1.7 2.6 0.00 0.00 0.00 70 1008.3
20260901031043 66 306 0.9 1.7 0.00 0.00 0.00 70 1008.3
20260901030542 66 343 2.6 2.6 0.00 0.00 0.00 70 1008.2
20260901030037 66 302 0.9 0.9 0.00 0.00 0.00 70 1008.1
20260901025536 66 0 5.2 7.0 0.00 0.00 0.00 69 1008.1
20260901025031 66 315 2.6 4.3 0.00 0.00 0.00 69 1008.1
20260901024526 66 311 1.7 1.7 0.00 0.00 0.00 69 1008.3
20260901024025 67 320 4.3 5.2 0.00 0.00 0.00 69 1008.3
20260901023519 67 357 1.7 2.6 0.00 0.00 0.00 69 1008.0
20260901023014 67 313 3.5 5.2 0.00 0.00 0.00 68 1008.1
20260901022509 67 261 4.3 7.0 0.00 0.00 0.00 68 1008.2
20260901022004 68 289 2.6 4.3 0.00 0.00 0.00 68 1008.2
20260901021500 68 322 1.7 1.7 0.00 0.00 0.00 67 1008.3
20260901020955 68 314 2.6 4.3 0.00 0.00 0.00 67 1008.3
20260901020450 68 329 2.6 4.3 0.00 0.00 0.00 67 1008.3
20260901015949 68 347 3.5 4.3 0.00 0.00 0.00 67 1008.2
20260901015446 68 334 6.1 7.8 0.00 0.00 0.00 66 1008.4
20260901014945 68 0 4.3 6.1 0.00 0.00 0.00 66 1008.3
20260901014441 68 321 2.6 2.6 0.00 0.00 0.00 66 1008.3
20260901013936 68 324 3.5 6.1 0.00 0.00 0.00 66 1008.3
20260901013432 68 2 6.1 7.8 0.00 0.00 0.00 66 1008.3
20260901012928 68 10 3.5 5.2 0.00 0.00 0.00 66 1008.3
20260901012422 68 283 3.5 6.1 0.00 0.00 0.00 66 1008.2
20260901011918 68 335 3.5 5.2 0.00 0.00 0.00 67 1008.4
20260901011414 68 338 3.5 6.1 0.00 0.00 0.00 67 1008.5
20260901010912 69 0 2.6 4.3 0.00 0.00 0.00 66 1008.3
20260901010407 69 308 2.6 4.3 0.00 0.00 0.00 66 1008.5
20260901005906 69 319 3.5 6.1 0.00 0.00 0.00 66 1008.3
20260901005401 69 274 0.0 0.9 0.00 0.00 0.00 66 1008.4
20260901004856 69 310 2.6 5.2 0.00 0.00 0.00 66 1008.4
20260901004355 69 344 4.3 7.0 0.00 0.00 0.00 65 1008.3
20260901003850 70 336 5.2 7.0 0.00 0.00 0.00 64 1008.4
20260901003345 70 325 5.2 8.7 0.00 0.00 0.00 64 1008.3
20260901002843 69 340 3.5 4.3 0.00 0.00 0.00 64 1008.3
20260901002343 70 307 2.6 4.3 0.00 0.00 0.00 63 1008.5
20260901001838 70 331 4.3 7.0 0.00 0.00 0.00 64 1008.5
20260901001333 71 312 7.0 12.2 0.00 0.00 0.00 62 1008.6
20260901000828 72 32 5.2 7.8 0.00 0.00 0.00 59 1008.7
20260901000324 70 301 2.6 2.6 0.00 0.00 0.00 61 1008.7
20260831235822 70 341 3.5 5.2 0.00 0.00 0.00 62 1008.7
20260831235318 71 331 6.1 7.8 0.00 0.00 0.00 60 1008.8
20260831234813 71 346 1.7 4.3 0.00 0.00 0.00 60 1008.8
20260831234313 70 352 1.7 6.1 0.00 0.00 0.00 62 1008.8
20260831233808 71 301 1.7 2.6 0.00 0.00 0.00 61 1008.9
20260831233304 72 55 6.1 11.3 0.00 0.00 0.00 60 1009.2
20260831232758 73 339 0.0 2.6 0.00 0.00 0.00 58 1009.0
20260831232255 72 2 2.6 6.1 0.00 0.00 0.00 60 1009.0
20260831231750 72 279 7.0 9.6 0.00 0.00 0.00 61 1009.1
20260831231247 71 350 2.6 2.6 0.00 0.00 0.00 61 1009.2
20260831230742 70 357 6.1 7.8 0.00 0.00 0.00 63 1009.2
20260831230237 70 332 5.2 7.8 0.00 0.00 0.00 63 1009.1
20260831225736 71 355 0.9 1.7 0.00 0.00 0.00 62 1009.0
20260831225232 71 270 0.9 2.6 0.00 0.00 0.00 60 1009.2
20260831224726 72 338 3.5 6.1 0.00 0.00 0.00 60 1009.4
20260831224222 75 339 0.9 6.1 0.00 0.00 0.00 56 1009.3
20260831223717 74 5 0.0 0.0 0.00 0.00 0.00 58 1009.6
20260831223214 73 24 4.3 7.0 0.00 0.00 0.00 59 1009.6
20260831222709 73 9 6.1 7.8 0.00 0.00 0.00 60 1009.5
20260831222205 72 277 0.9 0.9 0.00 0.00 0.00 62 1009.7
20260831221700 72 14 7.8 11.3 0.00 0.00 0.00 61 1009.4
20260831221155 71 259 2.6 4.3 0.00 0.00 0.00 61 1009.7
20260831220650 71 17 2.6 4.3 0.00 0.00 0.00 63 1009.8
20260831220145 73 341 2.6 7.0 0.00 0.00 0.00 60 1009.5
20260831215640 74 312 0.0 0.0 0.00 0.00 0.00 60 1009.8
20260831215136 72 314 5.2 7.0 0.00 0.00 0.00 61 1010.0
20260831214633 71 351 5.2 9.6 0.00 0.00 0.00 61 1009.9
20260831214129 72 351 3.5 6.1 0.00 0.00 0.00 61 1010.1
20260831213626 72 292 2.6 4.3 0.00 0.00 0.00 60 1010.1
20260831213121 71 8 2.6 4.3 0.00 0.00 0.00 62 1010.3
20260831212617 70 290 6.1 7.8 0.00 0.00 0.00 64 1010.4
20260831212113 71 343 4.3 8.7 0.00 0.00 0.00 63 1010.1
20260831211612 71 332 6.1 7.8 0.00 0.00 0.00 62 1010.5
20260831211112 71 342 7.0 8.7 0.00 0.00 0.00 62 1010.5
20260831210607 71 291 1.7 4.3 0.00 0.00 0.00 62 1010.4
20260831210103 73 353 6.1 9.6 0.00 0.00 0.00 60 1010.7
20260831205602 72 331 4.3 6.1 0.00 0.00 0.00 61 1010.6
20260831205058 73 305 0.9 1.7 0.00 0.00 0.00 61 1010.6
20260831204553 71 299 3.5 5.2 0.00 0.00 0.00 62 1010.8
20260831204051 72 281 5.2 7.8 0.00 0.00 0.00 60 1010.8
20260831203546 70 307 0.9 0.9 0.00 0.00 0.00 64 1011.0
20260831203045 72 327 4.3 6.1 0.00 0.00 0.00 61 1010.8
20260831202544 71 277 1.7 5.2 0.00 0.00 0.00 61 1010.9
20260831202039 71 308 0.9 1.7 0.00 0.00 0.00 62 1011.1
20260831201538 70 334 3.5 5.2 0.00 0.00 0.00 64 1011.1
20260831201033 71 259 0.9 1.7 0.00 0.00 0.00 64 1011.3
20260831200529 70 266 4.3 6.1 0.00 0.00 0.00 63 1011.4
20260831200024 69 307 4.3 5.2 0.00 0.00 0.00 63 1011.3
20260831195519 70 333 4.3 7.8 0.00 0.00 0.00 62 1011.5
20260831195019 69 317 4.3 6.1 0.00 0.00 0.00 64 1011.5
20260831194509 70 314 1.7 1.7 0.00 0.00 0.00 63 1011.5
20260831194008 70 8 1.7 1.7 0.00 0.00 0.00 64 1011.8
20260831193504 68 317 1.7 1.7 0.00 0.00 0.00 68 1011.5
20260831192959 68 313 6.1 8.7 0.00 0.00 0.00 68 1011.6
20260831192454 69 316 6.1 7.8 0.00 0.00 0.00 66 1011.8
20260831191948 67 339 6.1 7.8 0.00 0.00 0.00 68 1012.0
20260831191445 66 340 4.3 7.0 0.00 0.00 0.00 70 1011.8
20260831190941 68 307 3.5 6.1 0.00 0.00 0.00 66 1012.0
20260831190436 68 316 1.7 6.1 0.00 0.00 0.00 69 1012.2
20260831185935 69 319 2.6 4.3 0.00 0.00 0.00 66 1012.2
20260831185431 68 314 4.3 6.1 0.00 0.00 0.00 68 1012.1
20260831184930 68 318 3.5 6.1 0.00 0.00 0.00 67 1012.4
20260831184425 69 318 5.2 8.7 0.00 0.00 0.00 65 1012.2
20260831183920 68 306 2.6 6.1 0.00 0.00 0.00 67 1012.4
20260831183420 69 297 6.1 7.0 0.00 0.00 0.00 68 1012.5
20260831182914 69 317 0.9 1.7 0.00 0.00 0.00 67 1012.6
20260831182409 68 282 2.6 4.3 0.00 0.00 0.00 69 1012.6
20260831181904 68 262 0.0 0.0 0.00 0.00 0.00 70 1012.6
20260831181359 67 335 4.3 6.1 0.00 0.00 0.00 71 1012.6
20260831180854 67 0 4.3 5.2 0.00 0.00 0.00 71 1012.7
20260831180348 66 283 2.6 4.3 0.00 0.00 0.00 74 1012.6
20260831175848 66 334 1.7 2.6 0.00 0.00 0.00 75 1012.8
20260831175344 65 325 3.5 4.3 0.00 0.00 0.00 75 1012.9
20260831174840 66 333 4.3 6.1 0.00 0.00 0.00 74 1013.0
20260831174336 65 308 0.9 0.9 0.00 0.00 0.00 77 1012.9
20260831173834 66 337 5.2 7.0 0.00 0.00 0.00 76 1012.9
20260831173328 64 314 1.7 2.6 0.00 0.00 0.00 78 1013.1
20260831172824 65 274 0.9 1.7 0.00 0.00 0.00 76 1013.1
20260831172319 66 308 2.6 2.6 0.00 0.00 0.00 75 1013.1
20260831171819 64 325 0.9 1.7 0.00 0.00 0.00 77 1013.2
20260831171315 64 300 0.0 0.9 0.00 0.00 0.00 77 1012.9
20260831170812 65 340 2.6 4.3 0.00 0.00 0.00 76 1013.2
20260831170308 65 316 3.5 5.2 0.00 0.00 0.00 76 1013.1
20260831165804 66 289 2.6 4.3 0.00 0.00 0.00 75 1013.3
20260831165300 66 70 0.9 1.7 0.00 0.00 0.00 73 1013.2
20260831164756 65 340 2.6 2.6 0.00 0.00 0.00 76 1013.2
20260831164252 64 328 1.7 4.3 0.00 0.00 0.00 78 1013.3
20260831163747 63 356 3.5 4.3 0.00 0.00 0.00 78 1013.1
20260831163243 65 290 2.6 4.3 0.00 0.00 0.00 76 1013.3
20260831162741 65 305 0.9 0.9 0.00 0.00 0.00 76 1013.5
20260831162236 65 321 0.0 0.0 0.00 0.00 0.00 75 1013.5
20260831161730 64 17 3.5 4.3 0.00 0.00 0.00 75 1013.4
20260831161227 64 353 4.3 5.2 0.00 0.00 0.00 74 1013.7
20260831160726 65 21 0.9 0.9 0.00 0.00 0.00 75 1013.7
20260831160221 64 76 1.7 2.6 0.00 0.00 0.00 76 1013.7
20260831155721 64 11 0.9 0.9 0.00 0.00 0.00 77 1013.5
20260831155217 64 318 0.9 1.7 0.00 0.00 0.00 77 1013.9
20260831154713 63 37 2.6 4.3 0.00 0.00 0.00 78 1014.0
20260831154209 63 14 3.5 4.3 0.00 0.00 0.00 77 1014.1
20260831153707 63 319 1.7 2.6 0.00 0.00 0.00 78 1014.1
20260831153203 62 7 3.5 4.3 0.00 0.00 0.00 79 1014.1
20260831152659 62 20 2.6 5.2 0.00 0.00 0.00 80 1014.0
20260831152155 62 11 4.3 6.1 0.00 0.00 0.00 80 1014.0
20260831151654 62 356 2.6 5.2 0.00 0.00 0.00 80 1014.0
20260831151149 61 5 3.5 4.3 0.00 0.00 0.00 81 1014.1
20260831150644 61 1 1.7 1.7 0.00 0.00 0.00 83 1014.0
20260831150139 60 1 0.0 0.0 0.00 0.00 0.00 84 1013.9
20260831145633 60 6 2.6 2.6 0.00 0.00 0.00 85 1014.3
20260831145129 59 338 0.9 0.9 0.00 0.00 0.00 86 1014.0
20260831144625 59 9 2.6 4.3 0.00 0.00 0.00 86 1014.1
20260831144121 59 19 0.0 0.9 0.00 0.00 0.00 87 1014.1
20260831143620 58 5 0.9 0.9 0.00 0.00 0.00 88 1014.2